Wednesday, April 23, 2014
06:47 UTC
  |  Log In   |  Register Free
Airport Search:

Hampton Roads Executive Airport
(KPVG)

Hampton Roads Executive Airport Diagram
No Airport Diagram Available

FAA data valid effective April 3, 2014 until May 29, 2014 (unless otherwise noted).

 
 
 
 
 
 
 
 
 
 
 
 
 
 

Current Aviation Weather for Hampton Roads Executive Airport (KPVG)

The most recent METAR observation for KPVG was updated at: 0555 UTC
METAR Summary (Translated METAR)
KPVG
230555Z AUTO 27005KT 10SM CLR 17/13 A2964 RMK AO1 10230 20140 57003
KCPK
(9.2 nm SE from KPVG)
230535Z AUTO 24003KT 10SM BKN070 BKN085 17/13 A2963 RMK AO2
TAF
No TAF information found within 50 nm of KPVG
  Airport Weather Conditions for KPVG

 Current Weather at PVG
63° F
Fair
West winds at 5.8 mph
PVG NOAA Radar

Pressure: 29.64 in
Humidity: 77%
Wind: West at 5.8 MPH (5 KT)
Dew Point: 55.4°F
Visibility: 10.00 mi


Airport Weather Forecast for KPVG

Translated METAR and TAF for KPVG
Translated METAR for KPVG (0647 UTC 23 April 2014)
found at http://aviationweather.gov/adds/metars/
 
METAR text: KPVG 230635Z AUTO 27004KT 10SM CLR 16/12 A2964 RMK AO1
Conditions at: KPVG (NORFOLK/HAMPTON , VA, US) observed 0635 UTC 23 April 2014
Temperature: 16.0°C (61°F)
Dewpoint: 12.0°C (54°F) [RH = 77%]
Pressure (altimeter): 29.64 inches Hg (1003.8 mb)
Winds: from the W (270 degrees) at 5 MPH (4 knots; 2.1 m/s)
Visibility: 10 or more miles (16+ km)
Ceiling: at least 12,000 feet AGL
Clouds: sky clear below 12,000 feet AGL
Weather: automated observation with no human augmentation;
there may or may not be significant weather present at this time
Translated TAF for KPVG

There is no translated TAF available for this airport

Find All Airport Services Find A Hotel Find A Rental Car Find A Golf Course Find A Restaurant $100 Hamburger



FBO's on the Field
FBO Company Facility Photos Services Transportation Aviation Fuel Prices: Prices include tax
Catering Weather Repair Courtesy Rental Type 100LL JetA JetA+ MOGAS 8087
 
Virginia Aviation Associates, LLC

This FBO has not yet been rated
FS:Shell
Last Updated: Mar-18
Login to update fuel prices
SS:
Contact Virginia Aviation Associates, LLCMore FBO Information
 
Add another FBO Facility Photos Catering Weather Repair Courtesy Rental Type 100LL JetA JetA+ MOGAS 8087
Services Transportation Aviation Fuel Prices: Prices include tax


GlobalAir.com Airport Resource Center model-print
model-print
model-print
model-print